Starlink 32191

operational
NORAD ID: 60314 Int'l Des: 2024-133 Owner: SPXS Country: US Constellation: starlink
LEOCIRCULAR

关于 Starlink 32191

正在加载描述...

实时位置

正在加载3D地球...

即将过境

高度历史

Altitude vs Time

uPlot chart will show altitude changes over time

两行轨道根数

1 60314U 24133P 25351.20520874 .00000018 00000-0 12719-4 0 9994
2 60314 53.1624 320.0458 0001230 83.3929 276.7211 15.30198325 79019
Epoch: Dec 17, 2025 • Age: 27 hours

当前状态

高度 479.0 km
速度 7.63 km/s
星下点 44.08°N, 120°W
发射日期 Jul 28, 2024
运行时间 1.3 years
类型 internet

技术详情

分类 Payload
质量 730.00 kg
干质量 700.00 kg
总质量 730.00 kg
长度 0.30 m
直径 4.10 m
跨度 29.00 m
形状 Box + pan
制造商 SPXS
平台类型 Starlink V2M
阶段状态 In Orbit
所有者/国家 SPXS/US

大型星座

Loading constellations...